Location: Cicognara
(44.9500°N, 10.4667°E)
Time: 21:26:00
(UTC+00:00)

Terra - Pass Details

Date: 20 June 2021
Orbit: 701 x 703 km, 98.2° (Epoch: 23 July)

Event Time Altitude Azimuth Distance (km) Brightness Sun altitude
Exits shadow 22:19:57 14° 232° (SW) 1,880 3.8 -20.3°
Maximum altitude 22:22:19 20° 268° (W) 1,595 3.8 -20.4°
Drops below altitude 10° 22:25:50 10° 315° (NW) 2,179 5.2 -20.5°
Sets 22:28:40 0° 333° (NNW) 3,103 6.5 -20.6°
